Time,TemperatureF,DewpointF,PressureIn,WindDirection,WindDirectionDegrees,WindSpeedMPH,WindSpeedGustMPH,Humidity,HourlyPrecipIn,Conditions,Clouds,dailyrainin,SoftwareType,DateUTC
2013-02-01 00:00:00,33.4,11.7,29.47,SW,234,22.8,22.8,40,0.00,,---,0.00,VWS V14.01,2013-02-01 05:00:00,
2013-02-01 00:03:00,33.3,11.6,29.47,West,263,15.2,18.1,40,0.00,,---,0.00,VWS V14.01,2013-02-01 05:03:00,
2013-02-01 00:08:00,33.3,11.6,29.47,SW,232,15.9,16.8,40,0.00,,---,0.00,VWS V14.01,2013-02-01 05:08:00,
2013-02-01 00:13:00,33.1,11.4,29.47,SW,214,13.4,13.4,40,0.00,,---,0.00,VWS V14.01,2013-02-01 05:13:00,
2013-02-01 00:18:00,32.7,11.6,29.47,SW,218,8.3,12.1,41,0.00,,---,0.00,VWS V14.01,2013-02-01 05:18:00,
2013-02-01 00:23:00,32.9,11.8,29.47,SSW,196,14.3,15.4,41,0.00,,---,0.00,VWS V14.01,2013-02-01 05:23:00,
2013-02-01 00:28:00,32.7,11.6,29.47,SW,218,8.3,11.0,41,0.00,,---,0.00,VWS V14.01,2013-02-01 05:28:00,
2013-02-01 00:33:00,32.5,11.5,29.47,SW,234,12.1,12.1,41,0.00,,---,0.00,VWS V14.01,2013-02-01 05:33:00,
2013-02-01 00:38:00,32.0,11.0,29.47,SSW,210,17.7,17.7,41,0.00,,---,0.00,VWS V14.01,2013-02-01 05:38:00,
2013-02-01 00:43:00,32.5,11.5,29.50,SW,236,15.4,16.8,41,0.00,,---,0.00,VWS V14.01,2013-02-01 05:43:00,
2013-02-01 00:48:00,32.4,11.3,29.50,SSW,201,11.2,14.3,41,0.00,,---,0.00,VWS V14.01,2013-02-01 05:48:00,
2013-02-01 00:53:00,32.2,11.1,29.50,SW,231,11.0,14.3,41,0.00,,---,0.00,VWS V14.01,2013-02-01 05:53:00,
2013-02-01 00:58:00,32.5,10.9,29.50,SW,224,22.8,27.5,40,0.00,,---,0.00,VWS V14.01,2013-02-01 05:58:00,
2013-02-01 01:03:00,32.4,10.8,29.50,WSW,242,16.3,20.6,40,0.00,,---,0.00,VWS V14.01,2013-02-01 06:03:00,
2013-02-01 01:08:00,32.0,11.0,29.50,West,273,13.0,18.1,41,0.00,,---,0.00,VWS V14.01,2013-02-01 06:08:00,
2013-02-01 01:12:00,32.0,11.0,29.50,SW,222,15.4,15.4,41,0.00,,---,0.00,VWS V14.01,2013-02-01 06:12:00,
2013-02-01 01:17:00,32.0,10.4,29.50,SW,233,15.2,17.7,40,0.00,,---,0.00,VWS V14.01,2013-02-01 06:17:00,
2013-02-01 01:22:00,32.0,10.4,29.50,SW,218,14.3,15.4,40,0.00,,---,0.00,VWS V14.01,2013-02-01 06:22:00,
2013-02-01 01:27:00,31.8,10.3,29.50,SW,234,10.1,15.4,40,0.00,,---,0.00,VWS V14.01,2013-02-01 06:27:00,
2013-02-01 01:32:00,31.6,10.6,29.50,SSW,199,11.6,13.9,41,0.00,,---,0.00,VWS V14.01,2013-02-01 06:32:00,
2013-02-01 01:37:00,31.5,9.9,29.50,SW,232,15.9,15.9,40,0.00,,---,0.00,VWS V14.01,2013-02-01 06:37:00,
2013-02-01 01:42:00,31.6,10.1,29.53,SW,220,8.7,13.4,40,0.00,,---,0.00,VWS V14.01,2013-02-01 06:42:00,
2013-02-01 01:47:00,31.5,9.9,29.53,SW,221,11.0,15.2,40,0.00,,---,0.00,VWS V14.01,2013-02-01 06:47:00,
2013-02-01 01:52:00,31.5,10.5,29.53,WSW,243,18.6,18.6,41,0.00,,---,0.00,VWS V14.01,2013-02-01 06:52:00,
2013-02-01 01:57:00,31.5,10.5,29.53,SW,233,17.2,19.9,41,0.00,,---,0.00,VWS V14.01,2013-02-01 06:57:00,
2013-02-01 02:02:00,31.5,10.5,29.53,SW,235,13.0,14.8,41,0.00,,---,0.00,VWS V14.01,2013-02-01 07:02:00,
2013-02-01 02:07:00,31.6,10.6,29.53,SW,216,11.2,19.5,41,0.00,,---,0.00,VWS V14.01,2013-02-01 07:07:00,
2013-02-01 02:12:00,31.5,10.5,29.53,SW,236,10.5,15.2,41,0.00,,---,0.00,VWS V14.01,2013-02-01 07:12:00,
2013-02-01 02:17:00,31.3,10.3,29.53,SW,229,10.5,11.2,41,0.00,,---,0.00,VWS V14.01,2013-02-01 07:17:00,
2013-02-01 02:22:00,31.3,10.3,29.53,SW,232,14.3,16.8,41,0.00,,---,0.00,VWS V14.01,2013-02-01 07:22:00,
2013-02-01 02:27:00,30.9,10.0,29.53,SSW,206,4.9,11.0,41,0.00,,---,0.00,VWS V14.01,2013-02-01 07:27:00,
2013-02-01 02:32:00,30.7,9.8,29.53,SW,236,7.8,9.2,41,0.00,,---,0.00,VWS V14.01,2013-02-01 07:32:00,
2013-02-01 02:37:00,31.1,10.7,29.53,SW,230,13.4,17.7,42,0.00,,---,0.00,VWS V14.01,2013-02-01 07:37:00,
2013-02-01 02:42:00,30.7,10.4,29.53,South,185,9.2,14.3,42,0.00,,---,0.00,VWS V14.01,2013-02-01 07:42:00,
2013-02-01 02:47:00,30.7,10.4,29.53,SW,218,12.1,12.5,42,0.00,,---,0.00,VWS V14.01,2013-02-01 07:47:00,
2013-02-01 02:52:00,30.9,11.1,29.53,SW,225,11.2,16.8,43,0.00,,---,0.00,VWS V14.01,2013-02-01 07:52:00,
2013-02-01 02:57:00,30.7,10.9,29.53,SW,231,13.9,16.8,43,0.00,,---,0.00,VWS V14.01,2013-02-01 07:57:00,
2013-02-01 03:02:00,30.4,10.6,29.53,SW,230,12.1,15.9,43,0.00,,---,0.00,VWS V14.01,2013-02-01 08:02:00,
2013-02-01 03:07:00,30.2,10.9,29.53,SW,229,8.3,12.1,44,0.00,,---,0.00,VWS V14.01,2013-02-01 08:07:00,
2013-02-01 03:12:00,30.4,11.1,29.53,SW,229,15.4,18.6,44,0.00,,---,0.00,VWS V14.01,2013-02-01 08:12:00,
2013-02-01 03:17:00,30.4,11.1,29.53,SW,233,7.4,19.5,44,0.00,,---,0.00,VWS V14.01,2013-02-01 08:17:00,
2013-02-01 03:22:00,30.2,10.9,29.53,SW,215,9.2,12.5,44,0.00,,---,0.00,VWS V14.01,2013-02-01 08:22:00,
2013-02-01 03:27:00,29.8,10.6,29.53,SW,225,12.1,15.4,44,0.00,,---,0.00,VWS V14.01,2013-02-01 08:27:00,
2013-02-01 03:32:00,29.8,10.6,29.53,SSW,211,13.9,19.5,44,0.00,,---,0.00,VWS V14.01,2013-02-01 08:32:00,
2013-02-01 03:37:00,29.8,10.6,29.53,SW,221,13.4,13.9,44,0.00,,---,0.00,VWS V14.01,2013-02-01 08:37:00,
2013-02-01 03:42:00,29.8,10.6,29.56,SW,231,11.6,15.2,44,0.00,,---,0.00,VWS V14.01,2013-02-01 08:42:00,
2013-02-01 03:47:00,29.7,10.4,29.56,SW,220,11.6,16.3,44,0.00,,---,0.00,VWS V14.01,2013-02-01 08:47:00,
2013-02-01 03:52:00,29.8,10.6,29.56,SW,217,19.0,19.0,44,0.00,,---,0.00,VWS V14.01,2013-02-01 08:52:00,
2013-02-01 03:57:00,29.7,10.4,29.56,SW,229,13.0,13.0,44,0.00,,---,0.00,VWS V14.01,2013-02-01 08:57:00,
2013-02-01 04:02:00,29.7,10.4,29.56,SW,222,13.0,15.2,44,0.00,,---,0.00,VWS V14.01,2013-02-01 09:02:00,
2013-02-01 04:07:00,29.5,10.3,29.56,SW,214,9.2,13.4,44,0.00,,---,0.00,VWS V14.01,2013-02-01 09:07:00,
2013-02-01 04:12:00,29.3,10.1,29.56,SW,229,11.6,13.0,44,0.00,,---,0.00,VWS V14.01,2013-02-01 09:12:00,
2013-02-01 04:17:00,29.1,10.4,29.56,WSW,237,13.9,16.8,45,0.00,,---,0.00,VWS V14.01,2013-02-01 09:17:00,
2013-02-01 04:22:00,29.1,10.4,29.56,SW,234,14.3,16.8,45,0.00,,---,0.00,VWS V14.01,2013-02-01 09:22:00,
2013-02-01 04:27:00,29.3,10.6,29.56,WSW,241,18.1,18.6,45,0.00,,---,0.00,VWS V14.01,2013-02-01 09:27:00,
2013-02-01 04:32:00,29.3,10.1,29.56,WSW,238,12.1,13.0,44,0.00,,---,0.00,VWS V14.01,2013-02-01 09:32:00,
2013-02-01 04:37:00,29.3,9.6,29.56,SSW,206,18.1,20.6,43,0.00,,---,0.00,VWS V14.01,2013-02-01 09:37:00,
2013-02-01 04:42:00,29.1,9.4,29.59,WSW,241,15.2,15.2,43,0.00,,---,0.00,VWS V14.01,2013-02-01 09:42:00,
2013-02-01 04:47:00,29.1,9.4,29.59,WSW,257,15.9,17.7,43,0.00,,---,0.00,VWS V14.01,2013-02-01 09:47:00,
2013-02-01 04:52:00,28.8,9.1,29.59,SSW,208,13.4,15.2,43,0.00,,---,0.00,VWS V14.01,2013-02-01 09:52:00,
2013-02-01 04:57:00,29.1,9.4,29.59,SW,221,12.5,13.9,43,0.00,,---,0.00,VWS V14.01,2013-02-01 09:57:00,
2013-02-01 05:02:00,28.8,9.1,29.59,SW,219,10.1,12.5,43,0.00,,---,0.00,VWS V14.01,2013-02-01 10:02:00,
2013-02-01 05:07:00,28.8,9.1,29.59,SW,221,14.8,15.9,43,0.00,,---,0.00,VWS V14.01,2013-02-01 10:07:00,
2013-02-01 05:12:00,28.6,8.9,29.59,SW,214,6.9,9.6,43,0.00,,---,0.00,VWS V14.01,2013-02-01 10:12:00,
2013-02-01 05:17:00,27.9,8.3,29.59,SW,231,12.5,12.5,43,0.00,,---,0.00,VWS V14.01,2013-02-01 10:17:00,
2013-02-01 05:22:00,28.6,8.9,29.59,SW,214,13.4,15.4,43,0.00,,---,0.00,VWS V14.01,2013-02-01 10:22:00,
2013-02-01 05:27:00,28.8,9.1,29.59,SW,217,18.1,20.1,43,0.00,,---,0.00,VWS V14.01,2013-02-01 10:27:00,
2013-02-01 05:32:00,28.4,8.8,29.59,SW,229,9.2,9.2,43,0.00,,---,0.00,VWS V14.01,2013-02-01 10:32:00,
2013-02-01 05:37:00,28.6,8.4,29.59,SW,233,13.9,14.8,42,0.00,,---,0.00,VWS V14.01,2013-02-01 10:37:00,
2013-02-01 05:42:00,28.6,8.4,29.59,SW,224,12.5,14.3,42,0.00,,---,0.00,VWS V14.01,2013-02-01 10:42:00,
2013-02-01 05:47:00,28.9,8.7,29.59,SSW,208,10.1,11.6,42,0.00,,---,0.00,VWS V14.01,2013-02-01 10:47:00,
2013-02-01 05:52:00,29.3,9.1,29.59,SW,230,9.6,15.9,42,0.00,,---,0.00,VWS V14.01,2013-02-01 10:52:00,
2013-02-01 05:57:00,28.9,8.7,29.59,SW,216,9.6,12.1,42,0.00,,---,0.00,VWS V14.01,2013-02-01 10:57:00,
2013-02-01 06:02:00,28.4,8.2,29.59,SW,236,15.9,15.9,42,0.00,,---,0.00,VWS V14.01,2013-02-01 11:02:00,
2013-02-01 06:07:00,28.2,8.1,29.59,SSW,211,11.0,12.1,42,0.00,,---,0.00,VWS V14.01,2013-02-01 11:07:00,
2013-02-01 06:12:00,28.0,7.9,29.59,SSW,203,12.5,14.3,42,0.00,,---,0.00,VWS V14.01,2013-02-01 11:12:00,
2013-02-01 06:17:00,28.0,7.9,29.59,SW,229,14.3,16.8,42,0.00,,---,0.00,VWS V14.01,2013-02-01 11:17:00,
2013-02-01 06:22:00,28.0,7.9,29.59,SSW,210,13.4,13.4,42,0.00,,---,0.00,VWS V14.01,2013-02-01 11:22:00,
2013-02-01 06:27:00,28.0,7.9,29.59,SW,234,11.6,13.0,42,0.00,,---,0.00,VWS V14.01,2013-02-01 11:27:00,
2013-02-01 06:32:00,27.7,7.6,29.59,SW,225,8.3,9.2,42,0.00,,---,0.00,VWS V14.01,2013-02-01 11:32:00,
2013-02-01 06:37:00,28.2,8.1,29.59,WSW,238,19.5,19.5,42,0.00,,---,0.00,VWS V14.01,2013-02-01 11:37:00,
2013-02-01 06:42:00,28.0,7.9,29.62,SW,227,12.5,12.5,42,0.00,,---,0.00,VWS V14.01,2013-02-01 11:42:00,
2013-02-01 06:47:00,27.9,7.8,29.62,SW,226,10.1,13.4,42,0.00,,---,0.00,VWS V14.01,2013-02-01 11:47:00,
2013-02-01 06:52:00,27.5,7.4,29.62,SW,225,11.0,12.5,42,0.00,,---,0.00,VWS V14.01,2013-02-01 11:52:00,
2013-02-01 06:57:00,27.9,7.8,29.62,SW,215,8.3,9.6,42,0.00,,---,0.00,VWS V14.01,2013-02-01 11:57:00,
2013-02-01 07:02:00,27.5,7.9,29.62,SW,219,11.0,11.2,43,0.00,,---,0.00,VWS V14.01,2013-02-01 12:02:00,
2013-02-01 07:07:00,28.0,7.9,29.62,SW,228,10.5,10.5,42,0.00,,---,0.00,VWS V14.01,2013-02-01 12:07:00,
2013-02-01 07:12:00,28.0,7.9,29.62,WSW,245,11.2,13.4,42,0.00,,---,0.00,VWS V14.01,2013-02-01 12:12:00,
2013-02-01 07:17:00,28.2,8.1,29.62,WSW,239,12.5,14.3,42,0.00,,---,0.00,VWS V14.01,2013-02-01 12:17:00,
2013-02-01 07:22:00,28.8,8.6,29.62,SW,226,10.5,12.5,42,0.00,,---,0.00,VWS V14.01,2013-02-01 12:22:00,
2013-02-01 07:27:00,29.7,9.4,29.65,SW,218,12.1,12.1,42,0.00,,---,0.00,VWS V14.01,2013-02-01 12:27:00,
2013-02-01 07:32:00,28.8,8.6,29.65,SSW,209,10.5,18.1,42,0.00,,---,0.00,VWS V14.01,2013-02-01 12:32:00,
2013-02-01 07:37:00,28.8,8.6,29.65,SW,222,9.6,12.1,42,0.00,,---,0.00,VWS V14.01,2013-02-01 12:37:00,
2013-02-01 07:42:00,28.9,8.7,29.65,SW,224,11.2,19.0,42,0.00,,---,0.00,VWS V14.01,2013-02-01 12:42:00,
2013-02-01 07:47:00,29.1,8.9,29.65,SW,221,15.2,17.7,42,0.00,,---,0.00,VWS V14.01,2013-02-01 12:47:00,
2013-02-01 07:52:00,29.5,9.2,29.65,SW,214,14.3,18.1,42,0.00,,---,0.00,VWS V14.01,2013-02-01 12:52:00,
2013-02-01 07:57:00,29.5,9.2,29.65,South,178,12.1,19.0,42,0.00,,---,0.00,VWS V14.01,2013-02-01 12:57:00,
2013-02-01 08:02:00,29.7,8.9,29.65,WSW,248,19.9,24.2,41,0.00,,---,0.00,VWS V14.01,2013-02-01 13:02:00,
2013-02-01 08:06:00,29.7,8.9,29.65,SW,233,19.0,24.8,41,0.00,,---,0.00,VWS V14.01,2013-02-01 13:06:00,
2013-02-01 08:11:00,29.8,9.0,29.65,WSW,240,20.1,21.9,41,0.00,,---,0.00,VWS V14.01,2013-02-01 13:11:00,
2013-02-01 08:16:00,30.0,9.2,29.65,SW,221,12.1,13.4,41,0.00,,---,0.00,VWS V14.01,2013-02-01 13:16:00,
2013-02-01 08:21:00,30.2,9.4,29.65,WSW,237,13.4,26.6,41,0.00,,---,0.00,VWS V14.01,2013-02-01 13:21:00,
2013-02-01 08:26:00,30.4,9.5,29.68,WSW,238,11.6,19.9,41,0.00,,---,0.00,VWS V14.01,2013-02-01 13:26:00,
2013-02-01 08:31:00,30.4,9.5,29.68,SW,224,13.4,22.8,41,0.00,,---,0.00,VWS V14.01,2013-02-01 13:31:00,
2013-02-01 08:36:00,30.4,9.5,29.68,SW,236,15.9,23.7,41,0.00,,---,0.00,VWS V14.01,2013-02-01 13:36:00,
2013-02-01 08:41:00,30.7,9.8,29.68,SW,222,18.6,18.6,41,0.00,,---,0.00,VWS V14.01,2013-02-01 13:41:00,
2013-02-01 08:46:00,30.6,9.7,29.68,SW,228,23.3,23.3,41,0.00,,---,0.00,VWS V14.01,2013-02-01 13:46:00,
2013-02-01 08:51:00,30.7,9.8,29.68,SW,225,13.4,23.3,41,0.00,,---,0.00,VWS V14.01,2013-02-01 13:51:00,
2013-02-01 08:56:00,31.1,10.2,29.68,SW,224,22.4,23.3,41,0.00,,---,0.00,VWS V14.01,2013-02-01 13:56:00,
2013-02-01 09:02:00,31.1,10.2,29.68,WSW,247,12.5,21.5,41,0.00,,---,0.00,VWS V14.01,2013-02-01 14:02:00,
2013-02-01 09:06:00,30.7,9.8,29.68,WSW,243,17.2,22.4,41,0.00,,---,0.00,VWS V14.01,2013-02-01 14:06:00,
2013-02-01 09:11:00,30.9,10.0,29.68,West,262,18.1,23.7,41,0.00,,---,0.00,VWS V14.01,2013-02-01 14:11:00,
2013-02-01 09:16:00,31.1,10.2,29.68,WSW,239,17.2,23.7,41,0.00,,---,0.00,VWS V14.01,2013-02-01 14:16:00,
2013-02-01 09:21:00,31.3,9.8,29.68,WSW,257,17.2,17.2,40,0.00,,---,0.00,VWS V14.01,2013-02-01 14:21:00,
2013-02-01 09:26:00,31.5,9.9,29.68,SW,220,12.5,17.7,40,0.00,,---,0.00,VWS V14.01,2013-02-01 14:26:00,
2013-02-01 09:31:00,31.6,10.1,29.68,West,266,12.1,20.6,40,0.00,,---,0.00,VWS V14.01,2013-02-01 14:31:00,
2013-02-01 09:36:00,31.5,9.9,29.68,WNW,289,11.2,16.8,40,0.00,,---,0.00,VWS V14.01,2013-02-01 14:36:00,
2013-02-01 09:41:00,31.3,9.8,29.65,WSW,246,15.9,24.4,40,0.00,,---,0.00,VWS V14.01,2013-02-01 14:41:00,
2013-02-01 09:46:00,31.6,10.1,29.65,West,266,11.0,15.2,40,0.00,,---,0.00,VWS V14.01,2013-02-01 14:46:00,
2013-02-01 09:51:00,31.5,9.9,29.65,WSW,256,13.4,20.6,40,0.00,,---,0.00,VWS V14.01,2013-02-01 14:51:00,
2013-02-01 09:56:00,31.6,10.1,29.65,SW,224,15.2,15.2,40,0.00,,---,0.00,VWS V14.01,2013-02-01 14:56:00,
2013-02-01 10:01:00,31.8,10.3,29.65,WSW,252,9.2,16.8,40,0.00,,---,0.00,VWS V14.01,2013-02-01 15:01:00,
2013-02-01 10:06:00,32.0,10.4,29.65,WSW,256,7.8,11.2,40,0.00,,---,0.00,VWS V14.01,2013-02-01 15:06:00,
2013-02-01 10:11:00,31.6,10.1,29.65,WSW,238,14.3,18.1,40,0.00,,---,0.00,VWS V14.01,2013-02-01 15:11:00,
2013-02-01 10:16:00,32.2,10.0,29.65,SW,229,13.0,16.3,39,0.00,,---,0.00,VWS V14.01,2013-02-01 15:16:00,
2013-02-01 10:21:00,32.5,10.4,29.65,SW,228,13.0,15.4,39,0.00,,---,0.00,VWS V14.01,2013-02-01 15:21:00,
2013-02-01 10:26:00,33.1,11.4,29.68,WSW,252,8.3,9.6,40,0.00,,---,0.00,VWS V14.01,2013-02-01 15:26:00,
2013-02-01 10:31:00,32.7,11.1,29.68,SW,228,12.1,16.3,40,0.00,,---,0.00,VWS V14.01,2013-02-01 15:31:00,
2013-02-01 10:36:00,32.9,11.2,29.68,West,268,13.0,14.8,40,0.00,,---,0.00,VWS V14.01,2013-02-01 15:36:00,
2013-02-01 10:41:00,32.9,11.2,29.68,SSW,205,11.0,15.2,40,0.00,,---,0.00,VWS V14.01,2013-02-01 15:41:00,
2013-02-01 10:46:00,32.7,11.1,29.68,SW,214,15.9,17.7,40,0.00,,---,0.00,VWS V14.01,2013-02-01 15:46:00,
2013-02-01 10:51:00,33.3,11.6,29.68,West,270,11.6,15.2,40,0.00,,---,0.00,VWS V14.01,2013-02-01 15:51:00,
2013-02-01 10:56:00,32.7,11.1,29.65,SSW,212,6.9,8.3,40,0.00,,---,0.00,VWS V14.01,2013-02-01 15:56:00,
2013-02-01 11:01:00,32.7,11.1,29.65,SW,236,12.1,14.3,40,0.00,,---,0.00,VWS V14.01,2013-02-01 16:01:00,
2013-02-01 11:06:00,33.1,11.4,29.65,SW,226,6.9,10.1,40,0.00,,---,0.00,VWS V14.01,2013-02-01 16:06:00,
2013-02-01 11:11:00,33.3,11.6,29.65,WSW,237,9.6,15.9,40,0.00,,---,0.00,VWS V14.01,2013-02-01 16:11:00,
2013-02-01 11:16:00,33.1,10.8,29.65,WSW,246,10.1,17.2,39,0.00,,---,0.00,VWS V14.01,2013-02-01 16:16:00,
2013-02-01 11:21:00,33.1,10.8,29.65,WSW,240,9.6,18.6,39,0.00,,---,0.00,VWS V14.01,2013-02-01 16:21:00,
2013-02-01 11:26:00,32.9,10.7,29.65,SW,226,14.3,18.6,39,0.00,,---,0.00,VWS V14.01,2013-02-01 16:26:00,
2013-02-01 11:31:00,33.1,10.8,29.65,West,277,9.6,13.4,39,0.00,,---,0.00,VWS V14.01,2013-02-01 16:31:00,
2013-02-01 11:36:00,33.3,10.4,29.65,West,274,8.7,12.5,38,0.00,,---,0.00,VWS V14.01,2013-02-01 16:36:00,
2013-02-01 11:41:00,33.3,10.4,29.65,West,269,14.8,17.2,38,0.00,,---,0.00,VWS V14.01,2013-02-01 16:41:00,
2013-02-01 11:46:00,32.9,10.7,29.65,WSW,254,12.1,15.2,39,0.00,,---,0.00,VWS V14.01,2013-02-01 16:46:00,
2013-02-01 11:51:00,33.3,11.0,29.65,West,277,10.5,11.6,39,0.00,,---,0.00,VWS V14.01,2013-02-01 16:51:00,
2013-02-01 11:56:00,32.9,10.7,29.62,West,280,14.8,15.9,39,0.00,,---,0.00,VWS V14.01,2013-02-01 16:56:00,
2013-02-01 12:01:00,33.3,11.0,29.62,WSW,249,9.2,13.9,39,0.00,,---,0.00,VWS V14.01,2013-02-01 17:01:00,
2013-02-01 12:06:00,33.1,10.2,29.62,West,279,13.0,13.4,38,0.00,,---,0.00,VWS V14.01,2013-02-01 17:06:00,
2013-02-01 12:11:00,33.4,10.6,29.62,WSW,252,9.6,11.6,38,0.00,,---,0.00,VWS V14.01,2013-02-01 17:11:00,
2013-02-01 12:16:00,33.3,10.4,29.62,WSW,251,6.3,12.1,38,0.00,,---,0.00,VWS V14.01,2013-02-01 17:16:00,
2013-02-01 12:21:00,33.3,10.4,29.62,SW,214,10.5,13.0,38,0.00,,---,0.00,VWS V14.01,2013-02-01 17:21:00,
2013-02-01 12:26:00,33.1,9.7,29.62,West,261,6.3,9.6,37,0.00,,---,0.00,VWS V14.01,2013-02-01 17:26:00,
2013-02-01 12:31:00,32.7,9.3,29.62,West,275,15.4,16.3,37,0.00,,---,0.00,VWS V14.01,2013-02-01 17:31:00,
2013-02-01 12:36:00,32.7,9.3,29.62,West,275,11.6,17.7,37,0.00,,---,0.00,VWS V14.01,2013-02-01 17:36:00,
2013-02-01 12:41:00,32.9,9.5,29.62,West,272,10.5,10.5,37,0.00,,---,0.00,VWS V14.01,2013-02-01 17:41:00,
2013-02-01 12:46:00,32.9,10.1,29.62,WNW,291,12.5,13.4,38,0.00,,---,0.00,VWS V14.01,2013-02-01 17:46:00,
2013-02-01 12:51:00,32.7,9.9,29.62,West,279,6.9,8.3,38,0.00,,---,0.00,VWS V14.01,2013-02-01 17:51:00,
2013-02-01 12:56:00,32.7,10.5,29.62,WNW,291,9.2,10.5,39,0.00,,---,0.00,VWS V14.01,2013-02-01 17:56:00,
2013-02-01 13:01:00,32.4,9.6,29.62,West,270,17.2,17.2,38,0.00,,---,0.00,VWS V14.01,2013-02-01 18:01:00,
2013-02-01 13:06:00,32.4,9.6,29.62,West,277,11.6,13.0,38,0.00,,---,0.00,VWS V14.01,2013-02-01 18:06:00,
2013-02-01 13:11:00,32.2,8.9,29.62,WNW,282,13.0,13.0,37,0.00,,---,0.00,VWS V14.01,2013-02-01 18:11:00,
2013-02-01 13:16:00,32.4,9.6,29.62,West,278,6.9,8.3,38,0.00,,---,0.00,VWS V14.01,2013-02-01 18:16:00,
2013-02-01 13:21:00,31.8,9.1,29.62,NW,311,14.3,14.3,38,0.00,,---,0.00,VWS V14.01,2013-02-01 18:21:00,
2013-02-01 13:26:00,32.2,9.4,29.62,WNW,282,12.1,12.1,38,0.00,,---,0.00,VWS V14.01,2013-02-01 18:26:00,
2013-02-01 13:31:00,32.5,9.8,29.62,West,268,10.5,10.5,38,0.00,,---,0.00,VWS V14.01,2013-02-01 18:31:00,
2013-02-01 13:36:00,32.0,9.3,29.62,NW,304,12.5,14.3,38,0.00,,---,0.00,VWS V14.01,2013-02-01 18:36:00,
2013-02-01 13:41:00,32.2,9.4,29.62,WNW,296,10.5,10.5,38,0.00,,---,0.00,VWS V14.01,2013-02-01 18:41:00,
2013-02-01 13:46:00,31.8,9.1,29.62,NW,304,11.0,13.4,38,0.00,,---,0.00,VWS V14.01,2013-02-01 18:46:00,
2013-02-01 13:51:00,32.4,9.6,29.62,West,266,11.2,11.2,38,0.00,,---,0.00,VWS V14.01,2013-02-01 18:51:00,
2013-02-01 13:56:00,32.2,9.4,29.62,WNW,295,10.5,10.5,38,0.00,,---,0.00,VWS V14.01,2013-02-01 18:56:00,
2013-02-01 14:01:00,32.2,9.4,29.62,WNW,297,9.2,9.6,38,0.00,,---,0.00,VWS V14.01,2013-02-01 19:01:00,
2013-02-01 14:06:00,32.4,10.2,29.62,WNW,283,8.7,11.6,39,0.00,,---,0.00,VWS V14.01,2013-02-01 19:06:00,
2013-02-01 14:11:00,32.5,10.4,29.62,WNW,287,5.8,7.4,39,0.00,,---,0.00,VWS V14.01,2013-02-01 19:11:00,
2013-02-01 14:16:00,32.4,9.6,29.62,WNW,282,6.3,7.8,38,0.00,,---,0.00,VWS V14.01,2013-02-01 19:16:00,
2013-02-01 14:21:00,32.4,10.2,29.62,WNW,289,7.4,9.6,39,0.00,,---,0.00,VWS V14.01,2013-02-01 19:21:00,
2013-02-01 14:26:00,32.4,10.2,29.62,West,259,9.2,9.2,39,0.00,,---,0.00,VWS V14.01,2013-02-01 19:26:00,
2013-02-01 14:31:00,32.5,10.4,29.62,WNW,288,7.8,7.8,39,0.00,,---,0.00,VWS V14.01,2013-02-01 19:31:00,
2013-02-01 14:36:00,32.2,9.4,29.62,WNW,290,11.0,11.0,38,0.00,,---,0.00,VWS V14.01,2013-02-01 19:36:00,
2013-02-01 14:41:00,32.2,10.0,29.65,West,278,10.1,10.1,39,0.00,,---,0.00,VWS V14.01,2013-02-01 19:41:00,
2013-02-01 14:46:00,32.4,9.6,29.65,WNW,301,6.9,6.9,38,0.00,,---,0.00,VWS V14.01,2013-02-01 19:46:00,
2013-02-01 14:51:00,32.4,10.2,29.65,West,278,4.9,4.9,39,0.00,,---,0.00,VWS V14.01,2013-02-01 19:51:00,
2013-02-01 14:56:00,32.5,9.8,29.65,SW,228,9.2,9.2,38,0.00,,---,0.00,VWS V14.01,2013-02-01 19:56:00,
2013-02-01 15:01:00,32.5,9.8,29.65,West,261,8.7,9.2,38,0.00,,---,0.00,VWS V14.01,2013-02-01 20:01:00,
2013-02-01 15:06:00,32.7,9.3,29.65,WNW,284,10.1,10.1,37,0.00,,---,0.00,VWS V14.01,2013-02-01 20:06:00,
2013-02-01 15:11:00,32.4,8.4,29.65,WNW,286,13.0,13.0,36,0.00,,---,0.00,VWS V14.01,2013-02-01 20:11:00,
2013-02-01 15:16:00,32.7,8.7,29.65,WNW,286,11.6,11.6,36,0.00,,---,0.00,VWS V14.01,2013-02-01 20:16:00,
2013-02-01 15:21:00,32.5,8.6,29.65,West,281,12.5,13.4,36,0.00,,---,0.00,VWS V14.01,2013-02-01 20:21:00,
2013-02-01 15:26:00,32.4,7.8,29.65,West,279,11.6,11.6,35,0.00,,---,0.00,VWS V14.01,2013-02-01 20:26:00,
2013-02-01 15:31:00,32.4,8.4,29.65,West,264,13.9,13.9,36,0.00,,---,0.00,VWS V14.01,2013-02-01 20:31:00,
2013-02-01 15:36:00,32.4,8.4,29.65,SW,230,6.7,11.2,36,0.00,,---,0.00,VWS V14.01,2013-02-01 20:36:00,
2013-02-01 15:41:00,32.4,8.4,29.65,West,279,10.5,17.7,36,0.00,,---,0.00,VWS V14.01,2013-02-01 20:41:00,
2013-02-01 15:46:00,32.2,8.2,29.65,SW,234,7.4,7.4,36,0.00,,---,0.00,VWS V14.01,2013-02-01 20:46:00,
2013-02-01 15:51:00,32.2,8.2,29.65,SW,226,8.7,11.0,36,0.00,,---,0.00,VWS V14.01,2013-02-01 20:51:00,
2013-02-01 15:56:00,32.4,8.4,29.68,WSW,251,5.8,11.2,36,0.00,,---,0.00,VWS V14.01,2013-02-01 20:56:00,
2013-02-01 16:01:00,32.2,8.2,29.68,WSW,247,8.3,13.0,36,0.00,,---,0.00,VWS V14.01,2013-02-01 21:01:00,
2013-02-01 16:05:00,32.2,8.2,29.68,NW,308,8.7,12.1,36,0.00,,---,0.00,VWS V14.01,2013-02-01 21:05:00,
2013-02-01 16:10:00,32.0,8.1,29.68,West,277,9.6,12.5,36,0.00,,---,0.00,VWS V14.01,2013-02-01 21:10:00,
2013-02-01 16:15:00,31.8,7.3,29.68,West,273,14.3,17.7,35,0.00,,---,0.00,VWS V14.01,2013-02-01 21:15:00,
2013-02-01 16:20:00,31.6,7.8,29.68,West,265,5.8,12.5,36,0.00,,---,0.00,VWS V14.01,2013-02-01 21:20:00,
2013-02-01 16:25:00,31.5,7.6,29.68,WSW,252,5.8,7.4,36,0.00,,---,0.00,VWS V14.01,2013-02-01 21:25:00,
2013-02-01 16:30:00,31.5,7.6,29.68,West,273,8.7,11.6,36,0.00,,---,0.00,VWS V14.01,2013-02-01 21:30:00,
2013-02-01 16:35:00,31.3,7.4,29.68,West,269,12.5,13.4,36,0.00,,---,0.00,VWS V14.01,2013-02-01 21:35:00,
2013-02-01 16:40:00,31.3,7.4,29.68,West,268,10.5,16.3,36,0.00,,---,0.00,VWS V14.01,2013-02-01 21:40:00,
2013-02-01 16:45:00,31.3,7.4,29.68,West,262,10.1,11.0,36,0.00,,---,0.00,VWS V14.01,2013-02-01 21:45:00,
2013-02-01 16:50:00,31.1,7.3,29.68,WSW,244,5.8,11.6,36,0.00,,---,0.00,VWS V14.01,2013-02-01 21:50:00,
2013-02-01 16:55:00,31.1,7.3,29.71,West,277,9.6,11.2,36,0.00,,---,0.00,VWS V14.01,2013-02-01 21:55:00,
2013-02-01 17:00:00,31.1,7.3,29.71,West,266,6.7,9.2,36,0.00,,---,0.00,VWS V14.01,2013-02-01 22:00:00,
2013-02-01 17:05:00,30.9,7.7,29.71,SW,230,9.6,9.6,37,0.00,,---,0.00,VWS V14.01,2013-02-01 22:05:00,
2013-02-01 17:10:00,30.9,7.1,29.71,WNW,298,9.2,13.9,36,0.00,,---,0.00,VWS V14.01,2013-02-01 22:10:00,
2013-02-01 17:15:00,30.9,7.1,29.71,WSW,258,6.3,9.2,36,0.00,,---,0.00,VWS V14.01,2013-02-01 22:15:00,
2013-02-01 17:20:00,30.9,7.1,29.71,West,266,6.9,8.7,36,0.00,,---,0.00,VWS V14.01,2013-02-01 22:20:00,
2013-02-01 17:25:00,30.9,7.1,29.71,West,269,8.7,9.2,36,0.00,,---,0.00,VWS V14.01,2013-02-01 22:25:00,
2013-02-01 17:30:00,30.9,7.1,29.71,West,277,13.0,13.9,36,0.00,,---,0.00,VWS V14.01,2013-02-01 22:30:00,
2013-02-01 17:35:00,30.9,7.1,29.71,West,260,16.3,16.3,36,0.00,,---,0.00,VWS V14.01,2013-02-01 22:35:00,
2013-02-01 17:40:00,30.7,7.0,29.74,West,276,11.6,13.9,36,0.00,,---,0.00,VWS V14.01,2013-02-01 22:40:00,
2013-02-01 17:45:00,30.6,7.4,29.74,West,281,8.3,14.8,37,0.00,,---,0.00,VWS V14.01,2013-02-01 22:45:00,
2013-02-01 17:50:00,30.6,6.8,29.74,West,274,20.1,24.4,36,0.00,,---,0.00,VWS V14.01,2013-02-01 22:50:00,
2013-02-01 17:55:00,30.4,6.6,29.74,West,270,12.5,15.9,36,0.00,,---,0.00,VWS V14.01,2013-02-01 22:55:00,
2013-02-01 18:00:00,30.4,6.6,29.74,WSW,250,11.0,13.4,36,0.00,,---,0.00,VWS V14.01,2013-02-01 23:00:00,
2013-02-01 18:05:00,30.2,6.5,29.74,WNW,286,12.5,13.4,36,0.00,,---,0.00,VWS V14.01,2013-02-01 23:05:00,
2013-02-01 18:10:00,29.8,6.2,29.77,WNW,285,13.4,19.0,36,0.00,,---,0.00,VWS V14.01,2013-02-01 23:10:00,
2013-02-01 18:15:00,29.7,6.0,29.77,West,269,15.9,16.3,36,0.00,,---,0.00,VWS V14.01,2013-02-01 23:15:00,
2013-02-01 18:20:00,29.5,5.8,29.77,West,265,13.9,13.9,36,0.00,,---,0.00,VWS V14.01,2013-02-01 23:20:00,
2013-02-01 18:25:00,29.5,5.8,29.77,West,269,13.9,19.0,36,0.00,,---,0.00,VWS V14.01,2013-02-01 23:25:00,
2013-02-01 18:30:00,29.1,5.5,29.77,West,270,14.8,19.0,36,0.00,,---,0.00,VWS V14.01,2013-02-01 23:30:00,
2013-02-01 18:35:00,28.9,5.3,29.77,WNW,286,15.2,15.9,36,0.00,,---,0.00,VWS V14.01,2013-02-01 23:35:00,
2013-02-01 18:40:00,28.8,5.2,29.80,WNW,282,12.5,13.9,36,0.00,,---,0.00,VWS V14.01,2013-02-01 23:40:00,
2013-02-01 18:45:00,28.6,5.0,29.80,WSW,242,8.7,15.2,36,0.00,,---,0.00,VWS V14.01,2013-02-01 23:45:00,
2013-02-01 18:50:00,28.6,5.0,29.80,West,273,13.0,18.6,36,0.00,,---,0.00,VWS V14.01,2013-02-01 23:50:00,
2013-02-01 18:55:00,28.4,5.5,29.80,West,273,14.8,18.6,37,0.00,,---,0.00,VWS V14.01,2013-02-01 23:55:00,
2013-02-01 19:00:00,28.4,5.5,29.80,West,280,12.1,14.8,37,0.00,,---,0.00,VWS V14.01,2013-02-02 00:00:00,
2013-02-01 19:05:00,28.0,5.1,29.80,WNW,288,9.2,12.1,37,0.00,,---,0.00,VWS V14.01,2013-02-02 00:05:00,
2013-02-01 19:10:00,28.0,5.1,29.80,West,267,8.7,13.4,37,0.00,,---,0.00,VWS V14.01,2013-02-02 00:10:00,
2013-02-01 19:15:00,28.0,5.1,29.80,WSW,251,11.2,15.4,37,0.00,,---,0.00,VWS V14.01,2013-02-02 00:15:00,
2013-02-01 19:20:00,28.0,5.1,29.80,WNW,283,16.8,16.8,37,0.00,,---,0.00,VWS V14.01,2013-02-02 00:20:00,
2013-02-01 19:25:00,28.0,5.1,29.83,West,263,14.8,18.1,37,0.00,,---,0.00,VWS V14.01,2013-02-02 00:25:00,
2013-02-01 19:30:00,28.0,5.1,29.83,West,272,13.9,16.3,37,0.00,,---,0.00,VWS V14.01,2013-02-02 00:30:00,
2013-02-01 19:35:00,27.7,4.8,29.83,West,274,11.0,11.0,37,0.00,,---,0.00,VWS V14.01,2013-02-02 00:35:00,
2013-02-01 19:40:00,27.9,5.0,29.83,West,266,11.2,14.8,37,0.00,,---,0.00,VWS V14.01,2013-02-02 00:40:00,
2013-02-01 19:45:00,27.9,5.6,29.83,West,275,12.1,16.3,38,0.00,,---,0.00,VWS V14.01,2013-02-02 00:45:00,
2013-02-01 19:50:00,27.9,5.6,29.83,WSW,255,13.4,13.9,38,0.00,,---,0.00,VWS V14.01,2013-02-02 00:50:00,
2013-02-01 19:55:00,27.7,5.4,29.83,WNW,283,13.0,15.2,38,0.00,,---,0.00,VWS V14.01,2013-02-02 00:55:00,
2013-02-01 20:00:00,27.7,5.4,29.83,WNW,282,13.9,13.9,38,0.00,,---,0.00,VWS V14.01,2013-02-02 01:00:00,
2013-02-01 20:05:00,27.5,5.2,29.83,WSW,240,9.2,9.6,38,0.00,,---,0.00,VWS V14.01,2013-02-02 01:05:00,
2013-02-01 20:10:00,27.5,5.8,29.85,West,280,12.5,12.5,39,0.00,,---,0.00,VWS V14.01,2013-02-02 01:10:00,
2013-02-01 20:15:00,27.1,5.5,29.85,West,263,9.6,13.4,39,0.00,,---,0.00,VWS V14.01,2013-02-02 01:15:00,
2013-02-01 20:20:00,27.1,5.5,29.85,WSW,239,11.2,11.2,39,0.00,,---,0.00,VWS V14.01,2013-02-02 01:20:00,
2013-02-01 20:25:00,27.1,5.5,29.85,WNW,284,10.1,12.1,39,0.00,,---,0.00,VWS V14.01,2013-02-02 01:25:00,
2013-02-01 20:30:00,27.0,5.3,29.85,WSW,252,7.4,10.5,39,0.00,,---,0.00,VWS V14.01,2013-02-02 01:30:00,
2013-02-01 20:35:00,27.0,5.3,29.85,WSW,255,10.1,11.2,39,0.00,,---,0.00,VWS V14.01,2013-02-02 01:35:00,
2013-02-01 20:40:00,26.8,5.2,29.85,West,272,11.0,11.2,39,0.00,,---,0.00,VWS V14.01,2013-02-02 01:40:00,
2013-02-01 20:45:00,26.4,5.4,29.85,West,267,9.2,10.5,40,0.00,,---,0.00,VWS V14.01,2013-02-02 01:45:00,
2013-02-01 20:50:00,26.4,5.4,29.85,WSW,246,10.1,10.1,40,0.00,,---,0.00,VWS V14.01,2013-02-02 01:50:00,
2013-02-01 20:55:00,26.2,5.2,29.85,WSW,246,6.7,7.8,40,0.00,,---,0.00,VWS V14.01,2013-02-02 01:55:00,
2013-02-01 21:00:00,26.4,5.9,29.85,West,273,6.7,9.2,41,0.00,,---,0.00,VWS V14.01,2013-02-02 02:00:00,
2013-02-01 21:05:00,26.2,5.8,29.85,WSW,237,5.8,5.8,41,0.00,,---,0.00,VWS V14.01,2013-02-02 02:05:00,
2013-02-01 21:10:00,26.2,5.8,29.85,West,275,8.7,10.1,41,0.00,,---,0.00,VWS V14.01,2013-02-02 02:10:00,
2013-02-01 21:15:00,26.2,5.8,29.85,West,271,15.9,15.9,41,0.00,,---,0.00,VWS V14.01,2013-02-02 02:15:00,
2013-02-01 21:20:00,26.2,5.8,29.85,WSW,254,9.2,10.5,41,0.00,,---,0.00,VWS V14.01,2013-02-02 02:20:00,
2013-02-01 21:25:00,26.2,5.8,29.85,WNW,288,11.6,12.1,41,0.00,,---,0.00,VWS V14.01,2013-02-02 02:25:00,
2013-02-01 21:30:00,26.2,5.8,29.88,West,279,16.8,16.8,41,0.00,,---,0.00,VWS V14.01,2013-02-02 02:30:00,
2013-02-01 21:35:00,26.2,5.8,29.88,West,261,9.6,11.0,41,0.00,,---,0.00,VWS V14.01,2013-02-02 02:35:00,
2013-02-01 21:40:00,25.9,5.4,29.88,West,259,10.5,10.5,41,0.00,,---,0.00,VWS V14.01,2013-02-02 02:40:00,
2013-02-01 21:45:00,25.9,5.4,29.88,WSW,258,6.7,9.2,41,0.00,,---,0.00,VWS V14.01,2013-02-02 02:45:00,
2013-02-01 21:50:00,25.5,5.6,29.88,West,281,11.2,11.2,42,0.00,,---,0.00,VWS V14.01,2013-02-02 02:50:00,
2013-02-01 21:55:00,25.5,5.6,29.88,West,264,11.6,12.5,42,0.00,,---,0.00,VWS V14.01,2013-02-02 02:55:00,
2013-02-01 22:00:00,25.3,5.5,29.88,West,267,11.6,11.6,42,0.00,,---,0.00,VWS V14.01,2013-02-02 03:00:00,
2013-02-01 22:05:00,25.3,5.5,29.88,WSW,256,11.6,11.6,42,0.00,,---,0.00,VWS V14.01,2013-02-02 03:05:00,
2013-02-01 22:10:00,25.3,5.5,29.88,WNW,285,16.8,17.2,42,0.00,,---,0.00,VWS V14.01,2013-02-02 03:10:00,
2013-02-01 22:15:00,25.2,5.3,29.88,West,281,12.5,12.5,42,0.00,,---,0.00,VWS V14.01,2013-02-02 03:15:00,
2013-02-01 22:20:00,25.2,5.3,29.88,NW,306,11.6,14.3,42,0.00,,---,0.00,VWS V14.01,2013-02-02 03:20:00,
2013-02-01 22:25:00,25.0,5.1,29.88,West,271,12.1,12.1,42,0.00,,---,0.00,VWS V14.01,2013-02-02 03:25:00,
2013-02-01 22:30:00,25.0,5.1,29.91,WNW,284,10.5,12.5,42,0.00,,---,0.00,VWS V14.01,2013-02-02 03:30:00,
2013-02-01 22:35:00,24.8,5.0,29.91,West,266,11.0,11.0,42,0.00,,---,0.00,VWS V14.01,2013-02-02 03:35:00,
2013-02-01 22:40:00,24.8,5.0,29.91,West,272,12.1,13.9,42,0.00,,---,0.00,VWS V14.01,2013-02-02 03:40:00,
2013-02-01 22:45:00,24.8,5.0,29.91,West,276,11.0,11.0,42,0.00,,---,0.00,VWS V14.01,2013-02-02 03:45:00,
2013-02-01 22:50:00,24.6,4.8,29.91,West,276,11.0,11.0,42,0.00,,---,0.00,VWS V14.01,2013-02-02 03:50:00,
2013-02-01 22:55:00,24.6,4.8,29.91,West,259,17.7,17.7,42,0.00,,---,0.00,VWS V14.01,2013-02-02 03:55:00,
2013-02-01 23:00:00,24.6,4.8,29.91,West,280,9.6,9.6,42,0.00,,---,0.00,VWS V14.01,2013-02-02 04:00:00,
2013-02-01 23:05:00,24.3,4.5,29.91,West,266,9.2,9.2,42,0.00,,---,0.00,VWS V14.01,2013-02-02 04:05:00,
2013-02-01 23:10:00,24.1,4.3,29.91,West,273,11.2,11.2,42,0.00,,---,0.00,VWS V14.01,2013-02-02 04:10:00,
2013-02-01 23:15:00,24.3,4.5,29.91,WNW,283,11.2,15.2,42,0.00,,---,0.00,VWS V14.01,2013-02-02 04:15:00,
2013-02-01 23:20:00,24.1,4.3,29.91,West,273,7.4,10.1,42,0.00,,---,0.00,VWS V14.01,2013-02-02 04:20:00,
2013-02-01 23:25:00,24.1,4.3,29.91,West,265,13.4,14.8,42,0.00,,---,0.00,VWS V14.01,2013-02-02 04:25:00,
2013-02-01 23:30:00,24.1,4.3,29.94,SW,229,14.3,17.2,42,0.00,,---,0.00,VWS V14.01,2013-02-02 04:30:00,
2013-02-01 23:35:00,24.1,4.3,29.94,West,280,12.5,14.3,42,0.00,,---,0.00,VWS V14.01,2013-02-02 04:35:00,
2013-02-01 23:39:00,23.9,4.2,29.94,West,267,12.5,13.4,42,0.00,,---,0.00,VWS V14.01,2013-02-02 04:39:00,
2013-02-01 23:45:00,23.9,3.6,29.94,West,260,13.9,17.7,41,0.00,,---,0.00,VWS V14.01,2013-02-02 04:45:00,
2013-02-01 23:49:00,23.7,4.0,29.94,West,272,11.2,12.5,42,0.00,,---,0.00,VWS V14.01,2013-02-02 04:49:00,
2013-02-01 23:54:00,23.5,3.8,29.94,WSW,245,11.0,13.0,42,0.00,,---,0.00,VWS V14.01,2013-02-02 04:54:00,
2013-02-01 23:59:00,23.5,3.8,29.94,West,277,14.3,16.8,42,0.00,,---,0.00,VWS V14.01,2013-02-02 04:59:00,